Temperature
14 14 14 14 14 14 13 13 14 14 14 14 14 14 14 14 14 14 14 14 14 14 14 14 14 14 14 14 15 15 15 15 15 15 14 14 14 14 15 15 15 15 15
14 14 13 13 13 13 13 13 13 13 13 14 14 13 13 13 13 13 13 13 14 14 14 14 14 14 14 14 14 14 14 14 14 14 14 14 14 14 14 14 14 14 14
13 13 13 13 13 13 13 13 13 13 13 13 13 13 13 13 13 13 13 13 13 13 13 14 14 14 14 14 14 14 14 14 14 14 14 14 14 14 14 14 14 14 14
13 13 13 13 13 13 13 13 13 13 13 13 13 13 13 13 13 13 13 13 13 13 13 13 13 14 14 14 14 14 14 13 13 13 13 14 14 14 14 14 14 14 14
12 13 13 12 12 12 12 12 12 13 13 13 13 13 13 12 12 12 12 12 13 13 13 13 13 13 14 14 13 13 13 13 13 13 13 13 13 13 14 14 14 14 14
12 12 12 12 12 12 12 12 12 12 12 12 12 13 12 12 12 12 12 12 12 12 13 13 13 13 13 13 13 13 13 13 13 13 13 13 13 13 13 13 13 13 13
11 12 12 12 12 12 12 12 12 12 12 12 12 12 12 12 12 12 12 12 12 12 12 13 13 13 13 13 13 13 12 12 12 12 12 12 12 13 13 13 13 13 13
11 11 11 11 12 12 12 12 12 12 12 12 12 12 12 12 12 12 12 12 12 12 12 12 12 13 13 13 12 12 12 12 12 12 12 12 12 12 12 13 13 13 13
11 11 11 11 11 11 11 12 12 12 12 12 11 12 12 12 12 12 12 12 12 12 12 12 12 12 12 12 12 12 12 12 12 12 12 12 12 12 12 12 12 12 12
10 10 11 11 11 11 11 11 11 11 11 11 11 11 11 11 11 11 11 11 11 11 11 11 11 12 12 11 11 11 11 11 11 11 11 11 11 11 12 12 12 12 12
10 10 10 10 10 11 11 11 11 11 11 11 11 11 11 11 11 11 11 11 11 11 11 11 11 11 11 11 11 11 11 11 11 11 11 11 11 11 11 11 11 11 11
9 9 10 10 10 10 10 10 11 11 11 11 10 10 10 10 10 10 10 10 10 10 10 10 10 10 10 10 10 10 10 10 10 10 10 10 10 10 10 10 10 10 11
9 9 9 10 10 10 10 10 10 10 10 10 10 10 10 10 10 10 10 10 10 10 10 10 10 10 10 10 10 10 10 10 10 10 10 10 10 10 10 10 10 10 10
9 9 9 9 9 9 9 10 10 10 10 10 10 10 10 9 9 9 9 9 9 9 9 10 9 9 9 9 9 9 9 9 9 9 9 9 9 9 9 9 9 9 9
8 8 9 9 9 9 9 9 9 10 10 10 9 9 9 9 9 9 9 9 9 9 9 9 9 9 9 9 9 9 9 9 9 9 9 9 9 9 9 9 8 8 8
8 8 8 9 9 9 9 9 9 9 9 9 9 9 9 9 9 8 8 8 8 9 9 9 9 9 9 8 8 9 9 8 8 8 8 8 8 8 8 8 8 8 8
8 8 8 8 8 8 9 9 9 9 9 9 9 9 8 8 8 8 8 8 8 8 8 8 8 8 8 8 8 8 8 8 8 8 8 8 8 8 8 8 8 8 7
7 7 7 7 8 8 8 8 8 9 8 8 8 8 8 8 8 8 8 8 8 8 8 8 8 8 8 8 8 8 7 7 7 7 7 7 7 7 7 7 7 7 7
7 7 7 7 7 8 8 8 8 8 8 8 8 8 8 8 8 8 8 8 7 7 7 7 8 8 7 7 7 7 7 7 7 7 7 7 7 7 7 7 7 7 6
6 7 7 7 7 7 7 7 7 7 8 8 8 8 8 8 7 7 7 7 7 7 7 7 7 7 7 7 7 7 6 6 6 6 6 6 6 6 6 6 6 6 6
6 6 6 6 6 7 7 7 7 7 7 7 7 7 7 7 7 7 7 7 7 7 7 7 7 7 6 6 6 6 5 5 5 5 5 5 5 5 5 5 5 5 5
5 5 6 6 6 6 6 6 6 7 7 7 7 7 7 7 7 7 7 7 6 6 6 6 6 6 6 6 6 5 5 4 4 5 5 5 5 5 5 5 5 5 5
5 5 5 5 5 6 6 6 6 6 6 6 6 6 6 6 6 6 6 6 6 6 6 6 6 6 6 5 5 5 5 4 4 4 4 4 4 4 4 4 4 4 4
4 4 5 5 5 5 5 5 5 5 5 5 6 6 6 6 6 6 6 6 6 5 5 5 5 5 5 5 5 5 4 4 4 3 3 3 4 4 4 4 4 4 4
3 4 4 4 4 4 4 4 4 5 5 5 5 5 5 5 5 5 5 5 5 5 5 5 5 5 5 5 4 4 4 4 4 4 3 3 3 3 3 3 3 3 3
3 3 3 4 4 4 4 4 4 4 4 5 5 5 5 5 5 5 5 5 5 5 5 5 5 4 4 4 4 4 4 4 4 3 3 2 2 2 3 3 3 3 3
Wind_Speed
6 9 10 10 10 10 10 10 10 10 10 10 10 11 11 12 12 13 13 13 13 14 14 15 16 16 17 17 17 18 18 18 18 18 18 19 19 19 19 19 19 18 20
8 10 10 11 10 10 10 10 10 10 10 10 10 10 11 11 12 13 13 13 14 14 15 16 16 17 17 17 17 17 17 17 17 18 18 18 19 19 20 20 19 18 20
9 11 10 11 10 10 10 10 10 10 10 11 11 11 11 11 12 13 13 13 14 15 15 16 17 17 17 17 16 16 16 16 16 17 16 15 16 18 19 20 19 19 19
9 10 10 11 11 11 10 10 11 11 10 10 11 11 11 11 12 13 13 14 14 15 16 16 17 17 17 16 16 15 15 15 16 16 15 15 15 17 18 19 19 19 19
8 10 10 12 11 11 11 11 11 11 11 11 11 11 11 12 13 13 14 14 15 15 15 16 17 17 16 16 16 15 15 15 16 17 16 16 15 17 18 18 18 19 19
8 10 11 12 11 11 11 11 11 11 11 11 11 11 12 13 13 14 14 14 15 15 16 16 17 16 16 15 15 15 15 15 15 16 16 16 15 17 18 18 18 18 19
7 9 11 12 11 11 11 11 12 11 11 11 11 12 13 13 14 14 14 15 15 15 16 16 17 16 16 16 16 16 16 15 16 17 16 15 16 18 18 19 18 18 18
8 9 9 11 12 11 11 11 12 12 11 11 11 12 13 13 13 14 14 14 15 15 16 16 16 16 16 16 16 16 16 16 16 16 16 15 17 18 18 18 19 18 18
8 9 8 9 10 11 11 11 12 12 11 11 11 12 13 13 13 13 14 14 15 15 15 15 15 16 16 16 15 16 16 17 16 14 14 15 17 18 18 18 18 18 18
7 7 7 8 9 9 9 10 11 12 12 12 12 12 13 13 13 13 13 14 15 15 15 15 15 15 15 15 14 14 15 16 17 16 14 15 17 17 18 18 18 18 18
5 5 5 6 7 8 7 8 10 11 12 12 11 11 11 11 12 12 13 14 14 15 15 15 14 14 13 13 13 14 14 14 16 15 14 15 16 17 17 17 17 18 18
4 4 4 5 6 7 6 7 8 9 9 9 9 9 9 10 11 11 12 13 14 14 13 13 12 12 11 11 12 13 13 14 14 13 13 15 15 16 16 16 16 16 17
5 4 4 4 5 5 5 6 6 7 8 8 9 9 9 10 10 10 9 10 11 11 10 10 10 10 11 11 11 12 13 14 13 13 13 14 14 14 14 15 15 15 16
4 4 3 4 4 4 4 5 5 6 6 6 7 8 8 7 7 7 7 8 8 8 8 8 8 10 11 12 12 12 13 13 13 13 14 15 14 13 13 14 14 15 15
3 3 3 4 4 4 4 4 5 5 6 7 7 7 8 7 6 6 7 7 7 7 7 7 8 8 9 10 11 12 12 13 13 13 13 15 14 14 13 13 13 13 14
3 3 3 3 4 4 3 3 4 6 7 8 7 7 8 7 7 6 6 6 6 7 7 7 8 7 8 9 10 11 11 12 13 13 13 14 15 15 14 14 13 13 13
4 4 3 3 4 4 4 4 5 6 7 6 7 8 8 8 8 7 5 5 6 7 8 8 8 8 7 7 8 9 10 11 12 12 13 13 14 15 15 14 14 13 13
4 4 4 4 4 4 4 4 4 6 6 6 7 8 8 8 8 7 5 5 7 7 7 5 5 4 5 5 5 6 8 9 11 12 13 13 13 13 13 14 13 12 12
3 4 4 4 3 3 4 4 5 5 5 6 6 7 8 8 9 7 6 6 7 6 5 5 4 4 5 5 5 5 6 7 8 10 11 12 13 12 12 12 13 12 11
2 3 4 4 3 3 4 3 3 4 4 5 6 6 7 8 8 8 7 7 7 5 4 4 5 5 5 5 5 5 4 5 7 7 8 9 11 11 11 11 11 11 11
3 3 3 4 4 3 3 3 3 3 3 3 5 6 7 7 8 8 6 7 6 4 5 6 5 6 4 4 4 3 3 4 5 4 6 7 8 9 9 10 10 10 9
2 2 2 3 4 3 2 2 2 3 3 3 5 6 7 7 7 7 7 6 5 4 5 5 6 4 3 3 3 3 2 2 3 2 3 4 5 7 7 8 8 8 8
2 2 2 2 3 3 3 2 2 3 2 2 3 3 5 7 7 7 7 6 5 5 5 5 6 5 4 2 2 3 3 2 0 1 2 3 3 3 4 5 6 6 7
1 1 2 2 3 3 3 3 4 3 2 2 4 3 4 6 6 7 7 6 6 4 5 5 4 4 5 4 1 1 2 3 3 1 1 1 2 2 2 3 3 4 5
2 1 1 2 2 3 3 3 3 3 2 2 3 4 4 4 6 6 7 6 5 4 5 5 4 4 3 4 3 1 2 2 2 2 2 1 1 1 1 1 2 3 4
1 1 1 1 2 3 3 4 4 4 3 4 4 4 4 3 4 6 6 6 5 4 4 5 4 5 4 4 3 2 2 2 2 2 2 2 1 1 1 1 1 2 3
Wind_Direction
113 121 136 128 120 114 112 110 104 98 94 93 92 88 84 80 77 73 71 78 79 77 78 77 78 77 76 75 74 73 73 75 74 72 72 73 73 73 72 71 72 72 74
120 126 135 127 123 117 116 114 108 103 99 96 95 91 87 84 80 77 74 82 83 81 79 78 77 76 75 75 74 74 75 75 75 72 70 70 72 74 73 71 73 74 73
116 126 133 126 123 119 118 117 113 107 102 97 95 92 90 87 84 81 79 82 83 82 81 80 78 77 74 74 75 75 75 74 74 72 67 67 72 74 74 74 74 73 73
114 121 131 129 125 121 119 120 115 108 104 100 96 92 91 91 88 85 82 81 82 81 81 81 79 77 75 73 74 75 74 72 72 70 69 66 70 75 75 75 74 73 74
105 113 124 128 125 121 119 121 117 112 107 103 99 96 93 92 91 87 84 81 79 80 80 80 79 77 75 73 73 73 70 69 72 71 69 65 68 73 75 75 75 74 74
98 106 118 120 121 121 119 122 119 115 111 107 104 100 96 94 92 89 87 85 82 81 81 81 79 77 75 74 72 68 65 67 71 72 70 67 69 72 74 74 75 75 75
97 100 118 119 118 119 119 125 123 118 114 110 106 102 98 95 93 91 89 88 86 85 84 81 79 77 75 74 70 64 61 65 71 72 70 69 72 74 73 73 73 74 74
98 99 112 118 115 119 115 121 124 121 117 113 109 105 101 98 95 93 92 90 89 88 85 83 82 79 76 74 69 63 60 65 72 73 71 70 74 75 73 72 72 72 74
93 98 99 106 113 117 117 114 119 118 116 115 111 107 103 99 98 97 95 93 91 89 87 85 83 81 77 73 67 63 63 64 68 71 72 69 74 75 73 72 72 72 72
92 97 103 101 101 104 115 117 119 115 114 112 109 108 104 102 100 98 97 96 93 91 89 87 83 80 77 72 65 60 62 65 68 67 68 70 73 74 73 72 71 71 71
94 96 105 103 100 99 111 120 119 116 113 110 107 107 103 99 96 94 95 97 96 93 90 87 83 79 75 69 63 58 59 67 70 67 67 72 75 75 73 72 72 70 70
124 116 110 104 103 104 107 120 118 118 116 110 107 105 102 97 95 96 93 95 96 94 91 86 82 76 70 63 61 61 60 67 71 69 67 72 75 75 73 72 71 71 70
142 129 115 112 109 107 107 119 115 117 116 111 110 108 104 101 99 94 92 89 88 87 82 81 76 69 67 64 62 64 62 65 69 69 66 73 74 76 75 74 73 71 70
142 138 124 115 111 109 109 121 116 121 115 108 110 112 109 100 95 91 86 84 81 81 80 75 72 71 70 68 67 66 67 69 70 71 66 71 75 78 78 77 76 75 72
135 137 140 132 127 117 113 121 114 116 118 117 115 113 113 108 106 99 92 88 83 82 79 72 72 73 71 69 70 70 70 71 71 72 68 69 72 75 77 79 78 77 75
150 149 145 140 134 125 122 120 117 117 121 122 118 117 118 114 109 105 98 91 85 86 84 79 77 73 70 71 69 69 70 71 71 71 69 66 68 70 71 73 75 76 74
160 154 157 149 139 137 136 126 120 124 126 125 125 123 118 118 115 112 107 101 96 97 92 87 80 77 76 73 69 67 70 73 73 71 69 66 64 64 66 68 70 71 71
152 153 161 157 150 145 139 127 121 129 128 127 130 129 124 123 123 117 114 111 110 108 97 98 94 92 84 76 69 65 66 70 73 72 71 67 64 63 63 65 65 67 68
151 154 153 144 148 143 136 129 123 127 129 131 132 131 132 132 131 126 123 119 118 111 103 107 104 105 98 85 77 68 64 64 69 72 71 71 68 66 64 63 62 62 66
122 140 148 146 145 140 136 127 123 123 127 129 133 138 140 139 139 132 127 127 125 121 119 120 118 105 106 101 87 73 64 68 71 71 71 74 71 66 63 61 59 58 60
101 118 150 152 152 143 140 143 146 153 153 144 140 144 144 143 144 138 132 130 129 139 139 132 125 117 112 112 94 79 60 62 70 67 75 74 72 68 65 63 59 56 54
129 136 145 152 153 146 135 141 147 147 157 155 145 148 150 149 150 146 140 142 140 137 137 140 136 131 135 136 121 120 101 37 27 52 74 82 76 72 67 63 62 59 58
165 176 175 150 139 135 127 114 111 102 101 133 145 156 153 154 154 152 152 149 149 148 155 154 152 142 152 163 133 130 141 180 152 4 55 78 79 79 78 73 67 61 59
187 171 158 156 146 133 134 145 152 154 161 178 164 157 153 152 152 154 154 154 155 152 157 162 154 152 149 162 148 79 126 139 143 157 324 48 75 80 87 77 77 76 65
159 154 151 162 153 150 155 162 159 151 143 137 142 145 152 154 153 155 156 154 157 157 157 158 159 162 161 161 154 134 107 112 125 151 196 245 9 5 77 105 104 95 84
104 131 160 162 181 170 171 173 175 165 153 151 149 158 159 160 155 155 160 160 161 158 160 163 167 169 171 157 152 148 150 150 173 159 168 176 205 284 327 141 155 139 109
Height
1507 1508 1510 1512 1513 1515 1516 1518 1519 1520 1521 1522 1523 1524 1525 1525 1526 1526 1527 1527 1528 1529 1530 1531 1531 1532 1533 1534 1535 1536 1537 1538 1539 1540 1541 1541 1542 1542 1543 1543 1544 1544 1545
1506 1508 1510 1511 1513 1515 1516 1518 1519 1521 1522 1523 1524 1525 1525 1526 1527 1527 1528 1528 1529 1530 1531 1532 1533 1533 1535 1536 1537 1538 1539 1540 1541 1542 1542 1543 1544 1544 1545 1545 1546 1547 1547
1506 1507 1509 1511 1513 1515 1516 1518 1520 1521 1522 1523 1524 1525 1526 1527 1527 1528 1529 1529 1530 1531 1532 1533 1534 1535 1536 1537 1538 1539 1540 1541 1542 1543 1544 1545 1546 1546 1547 1547 1548 1549 1549
1506 1507 1509 1511 1513 1514 1516 1518 1520 1521 1522 1524 1525 1526 1527 1527 1528 1529 1529 1530 1531 1532 1533 1534 1535 1536 1537 1538 1540 1541 1542 1543 1544 1545 1545 1546 1547 1548 1549 1549 1550 1550 1551
1506 1507 1509 1511 1513 1514 1516 1518 1520 1521 1523 1524 1525 1526 1527 1528 1529 1530 1530 1531 1532 1533 1534 1535 1536 1537 1538 1540 1541 1542 1543 1544 1545 1546 1547 1548 1549 1550 1550 1551 1551 1552 1553
1505 1507 1508 1510 1512 1514 1516 1518 1520 1521 1523 1524 1526 1527 1528 1529 1530 1530 1531 1532 1533 1534 1535 1536 1537 1538 1539 1541 1542 1543 1544 1545 1546 1547 1548 1549 1550 1551 1552 1552 1553 1554 1554
1505 1506 1508 1510 1512 1514 1516 1518 1520 1521 1523 1524 1526 1527 1528 1529 1530 1531 1532 1533 1534 1535 1536 1537 1538 1539 1540 1542 1543 1544 1545 1547 1547 1548 1549 1550 1551 1552 1553 1554 1554 1555 1556
1504 1506 1508 1510 1511 1513 1515 1517 1519 1521 1523 1524 1526 1527 1529 1530 1531 1532 1533 1534 1535 1536 1537 1538 1540 1541 1542 1543 1544 1545 1546 1548 1548 1549 1551 1552 1553 1554 1554 1555 1555 1556 1557
1504 1505 1507 1509 1511 1513 1515 1517 1519 1521 1522 1524 1526 1527 1529 1530 1531 1532 1534 1535 1536 1537 1538 1540 1541 1542 1543 1545 1546 1547 1548 1549 1549 1551 1552 1553 1554 1555 1555 1556 1556 1557 1558
1504 1505 1507 1508 1510 1512 1514 1516 1518 1520 1522 1524 1526 1527 1529 1530 1532 1533 1534 1535 1537 1538 1539 1541 1542 1543 1544 1546 1547 1548 1549 1549 1550 1551 1552 1554 1555 1556 1556 1557 1557 1558 1559
1503 1504 1506 1507 1509 1511 1513 1515 1517 1520 1522 1524 1525 1527 1528 1530 1532 1533 1534 1536 1537 1538 1540 1541 1543 1544 1545 1546 1547 1548 1549 1550 1551 1552 1553 1554 1556 1556 1557 1558 1558 1559 1559
1501 1503 1505 1506 1508 1510 1512 1514 1516 1518 1520 1523 1525 1526 1528 1530 1531 1533 1534 1536 1537 1539 1540 1541 1543 1544 1546 1547 1548 1549 1549 1550 1551 1552 1553 1555 1556 1557 1557 1558 1559 1559 1560
1500 1502 1503 1505 1507 1509 1511 1512 1515 1517 1519 1521 1524 1526 1527 1529 1531 1533 1534 1536 1537 1539 1540 1542 1543 1545 1546 1547 1548 1549 1550 1550 1551 1552 1554 1555 1556 1557 1557 1558 1559 1559 1560
1499 1500 1502 1504 1505 1507 1509 1511 1513 1515 1517 1520 1523 1525 1527 1528 1530 1532 1534 1535 1537 1538 1540 1541 1543 1545 1546 1547 1548 1549 1550 1550 1551 1552 1554 1555 1556 1557 1558 1558 1559 1559 1560
1496 1498 1500 1502 1504 1506 1508 1509 1512 1513 1516 1519 1521 1524 1526 1527 1529 1531 1533 1535 1536 1538 1540 1541 1543 1544 1546 1547 1548 1549 1550 1551 1551 1552 1553 1554 1555 1556 1557 1558 1558 1559 1559
1494 1496 1498 1499 1502 1504 1506 1508 1510 1512 1514 1517 1520 1523 1525 1527 1528 1530 1532 1534 1535 1537 1539 1541 1542 1544 1545 1546 1547 1548 1549 1551 1551 1552 1553 1554 1555 1556 1557 1557 1558 1558 1559
1492 1494 1495 1497 1499 1502 1504 1506 1508 1510 1513 1516 1518 1521 1523 1525 1527 1529 1531 1532 1534 1536 1538 1540 1541 1543 1544 1546 1547 1548 1549 1550 1551 1552 1553 1554 1554 1555 1556 1556 1557 1558 1558
1490 1491 1493 1495 1497 1499 1502 1504 1506 1509 1511 1514 1517 1519 1521 1524 1525 1527 1529 1531 1533 1535 1537 1538 1540 1541 1543 1544 1546 1547 1548 1550 1551 1552 1552 1553 1554 1555 1555 1556 1556 1557 1557
1487 1488 1490 1492 1494 1496 1499 1501 1504 1507 1509 1512 1515 1517 1519 1521 1523 1525 1527 1529 1531 1533 1534 1536 1538 1540 1541 1543 1545 1546 1548 1549 1550 1551 1552 1552 1553 1554 1554 1555 1555 1556 1556
1484 1486 1488 1490 1492 1494 1496 1498 1501 1504 1507 1510 1512 1514 1517 1519 1521 1523 1525 1527 1529 1531 1532 1535 1536 1538 1540 1542 1543 1545 1547 1548 1549 1550 1551 1552 1552 1553 1554 1554 1554 1555 1555
1482 1483 1485 1487 1489 1491 1492 1495 1497 1500 1504 1507 1509 1511 1514 1516 1518 1520 1522 1525 1527 1529 1530 1532 1534 1536 1538 1540 1542 1543 1545 1547 1548 1549 1550 1550 1551 1552 1552 1553 1553 1553 1554
1479 1480 1482 1484 1486 1488 1490 1492 1495 1498 1501 1504 1506 1509 1511 1513 1515 1518 1520 1522 1524 1526 1528 1530 1531 1533 1535 1538 1539 1541 1543 1547 1547 1547 1548 1549 1549 1550 1550 1551 1551 1552 1552
1476 1478 1479 1481 1483 1485 1487 1489 1492 1494 1497 1500 1502 1505 1508 1511 1512 1514 1517 1519 1521 1523 1525 1527 1529 1530 1532 1535 1537 1539 1541 1542 1543 1545 1545 1546 1547 1548 1548 1549 1549 1550 1550
1474 1476 1477 1479 1480 1482 1484 1486 1488 1490 1492 1495 1498 1502 1505 1507 1510 1512 1514 1516 1518 1520 1522 1524 1526 1528 1530 1532 1534 1536 1538 1539 1541 1541 1543 1544 1544 1545 1546 1546 1547 1547 1547
1472 1473 1475 1477 1478 1480 1481 1483 1485 1487 1490 1493 1495 1498 1501 1504 1506 1509 1511 1513 1515 1517 1519 1521 1523 1525 1527 1529 1531 1533 1534 1536 1537 1538 1539 1540 1541 1542 1543 1543 1544 1544 1545
1470 1471 1472 1473 1475 1477 1478 1480 1482 1484 1486 1489 1491 1494 1497 1500 1503 1505 1507 1509 1511 1513 1515 1517 1520 1522 1524 1526 1528 1530 1531 1532 1534 1535 1535 1536 1537 1539 1540 1540 1541 1541 1542